SCP
-0 -0 0 -0 -0 -0 -0 -0 -0 -0 -0 -0 0 0 0 0 0 0 0 0 0 0 0 0 -0 -0 -0 -0 -0 -0 -0 -0 -0 -0 -0 -0 -0 -0 -0 -0 -0 -0 -0 -0 -0 -0 -0 -0 -0
0 0 0 0 -0 0 0 -0 -0 -0 -0 0 -0 -0 -0 -0 0 0 0 0 0 0 0 0 -0 -0 -0 -0 -0 -0 -0 -0 -0 -0 -0 -0 -0 -0 -0 -0 -0 -0 -0 -0 -0 -0 -0 0 -0
0 0 0 0 0 0 0 -0 -0 -0 0 -0 -0 -0 0 -0 0 0 0 0 0 0 0 0 -0 -0 -0 -0 -0 -0 -0 -0 -0 -0 -0 -0 -0 -0 -0 -0 -0 -0 -0 -0 -0 -0 0 -0 -0
0 0 0 0 0 0 0 0 -0 -0 0 0 0 -0 0 0 0 0 0 0 0 0 0 0 -0 -0 -0 -0 -0 -0 -0 -0 -0 -0 -0 -0 -0 -0 -0 -0 -0 -0 -0 -0 -0 -0 0 -0 -0
0 0 0 0 0 0 0 0 0 0 0 0 0 -0 -0 0 0 0 0 0 0 0 0 0 -0 -0 -0 -0 -0 0 -0 0 0 0 -0 -0 -0 -0 -0 -0 -0 -0 0 0 0 0 0 0 -0
0 0 0 0 0 0 0 0 0 0 0 0 0 0 -0 0 0 0 0 0 0 0 0 0 0 0 -0 0 0 0 0 0 0 0 -0 -0 -0 -0 -0 -0 -0 0 0 0 0 0 0 0 0
0 0 0 0 0 0 0 0 0 0 0 0 0 0 0 -0 0 0 0 0 0 0 0 0 0 0 0 0 0 0 0 0 0 0 0 0 0 -0 -0 -0 -0 0 0 0 0 0 0 0 0
0 0 0 0 0 0 0 0 0 0 0 0 0 0 0 0 0 0 0 0 0 0 0 0 0 0 0 0 0 0 0 0 0 0 0 0 0 0 0 0 0 0 0 0 0 0 0 0 0
0 0 0 0 0 0 0 0 0 0 0 0 0 0 0 0 0 0 0 0 0 0 0 0 0 0 0 0 0 0 0 0 0 0 0 0 0 0 0 0 0 0 0 0 0 0 0 0 0
0 0 0 0 0 0 0 0 0 0 0 0 0 0 0 0 0 0 0 0 0 0 0 0 0 0 0 0 0 0 0 0 0 0 0 0 0 0 0 0 0 0 0 0 0 0 0 0 0
0 0 0 0 0 0 0 0 0 0 0 0 0 0 0 0 0 0 0 0 0 0 0 0 0 0 0 0 0 0 0 0 0 0 0 0 0 0 0 0 0 0 0 0 0 0 0 0 0
0 0 0 0 0 0 0 0 0 0 0 0 0 0 0 0 0 0 0 0 0 0 0 0 0 0 0 0 0 0 0 0 0 0 0 0 0 0 0 0 0 0 0 0 0 0 0 0 0
0 0 0 0 0 0 0 0 0 0 0 0 0 0 0 0 0 0 0 0 0 0 0 0 0 0 0 0 0 0 0 0 0 0 0 0 0 0 0 0 0 0 0 0 0 0 0 0 0
0 0 0 0 0 0 0 0 0 0 0 0 0 0 0 0 0 0 0 0 0 0 0 0 0 0 0 0 0 0 0 0 0 0 0 0 0 0 0 0 0 0 0 0 0 0 0 0 0
0 0 0 0 0 0 0 0 0 0 0 0 0 0 0 0 0 0 0 0 0 0 0 0 0 0 0 0 0 0 0 0 0 0 0 0 0 0 0 0 0 0 0 0 0 0 0 0 0
0 0 0 0 0 0 0 0 0 0 0 0 0 0 0 0 0 0 0 0 0 0 0 0 0 0 0 0 0 0 0 0 0 0 0 0 0 0 0 0 0 0 0 0 0 0 0 0 0
0 0 0 0 0 0 0 0 0 0 0 0 0 0 0 0 0 0 0 0 0 0 0 0 0 0 0 0 0 0 0 0 0 0 0 0 0 0 0 0 0 0 0 0 0 0 0 0 0
0 0 0 0 0 0 0 0 0 0 0 0 0 0 0 0 0 0 0 0 0 0 0 0 0 0 0 0 0 0 0 0 0 0 0 0 0 0 0 0 0 0 0 0 0 0 0 0 0
0 0 0 0 0 0 0 0 0 0 0 0 0 0 0 0 0 0 0 0 0 0 0 0 0 0 0 0 0 0 0 0 0 0 0 0 0 0 0 0 0 0 0 0 0 0 0 0 0
0 0 0 0 0 0 0 0 0 0 0 0 0 0 0 0 0 0 0 0 0 0 0 0 0 0 0 0 0 0 0 0 0 0 0 0 0 0 0 0 0 0 0 0 0 0 0 0 0
0 0 0 0 0 0 0 0 0 0 0 0 0 0 0 0 0 0 0 0 0 0 0 0 0 0 0 0 0 0 0 0 0 0 0 0 0 0 0 0 0 0 0 0 0 0 0 0 0
0 0 0 0 0 0 0 0 0 0 0 0 0 0 0 0 0 0 0 0 0 0 0 0 0 0 0 0 0 0 0 0 0 0 0 0 0 0 0 0 0 0 0 0 0 0 0 0 0
0 0 0 0 0 0 0 0 -0 0 0 0 0 0 0 0 0 0 0 0 0 0 0 0 0 0 0 0 0 0 0 0 0 0 0 0 0 0 0 0 0 0 0 0 0 0 0 0 0
0 0 0 0 0 0 0 0 0 0 0 -0 0 0 0 0 0 0 0 0 0 0 0 0 0 0 0 0 0 0 0 0 0 0 0 0 0 0 0 0 0 0 0 0 0 0 0 0 0
0 0 0 0 0 0 0 0 0 0 0 0 -0 0 0 0 0 0 0 0 0 0 0 0 0 0 0 0 0 0 0 0 0 0 0 0 0 0 0 0 0 0 0 0 0 0 0 0 0
0 0 0 0 0 0 0 0 0 0 0 0 0 0 0 0 0 0 0 0 0 0 0 0 0 0 0 0 0 0 0 0 0 0 0 0 0 0 0 0 0 0 0 0 0 0 0 0 0
0 0 0 0 0 0 0 0 0 0 0 0 0 0 0 0 0 0 0 0 0 0 0 0 0 0 0 0 0 0 0 0 0 0 0 0 0 0 0 0 0 0 0 0 0 0 0 0 0
0 0 0 0 0 0 0 0 0 0 0 0 0 0 0 0 0 0 0 0 0 0 0 0 0 0 0 0 0 0 0 0 0 0 0 0 0 0 0 0 0 0 0 0 0 0 0 0 0
0 0 0 0 0 0 0 0 0 0 0 0 0 0 0 0 0 0 0 0 -0 0 0 0 0 0 0 0 0 0 0 0 0 0 0 0 0 0 0 0 0 0 0 0 0 0 0 0 0
0 0 0 0 0 0 0 0 0 0 0 0 0 0 0 0 0 -0 0 0 0 0 0 0 0 0 0 0 0 0 0 0 0 0 0 0 0 0 0 0 0 0 0 0 0 0 0 0 0
Wind_Speed_500mb
22 14 20 5 9 11 4 3 3 3 5 5 2 4 5 7 2 4 12 26 25 29 28 26 23 22 22 19 13 8 6 4 4 3 10 18 17 9 8 22 25 19 21 21 21 21 22 26 25
22 15 8 8 10 7 7 6 5 5 4 14 8 9 10 6 6 4 23 21 24 26 26 25 23 24 24 16 11 7 4 2 6 4 11 15 13 6 10 24 20 20 16 19 21 20 29 27 24
18 19 8 9 7 7 5 4 4 4 10 5 4 10 5 4 7 4 2 21 26 24 23 22 22 25 21 16 9 5 4 4 5 2 12 12 9 8 8 17 19 19 18 16 17 21 24 23 18
20 8 12 10 7 1 2 3 1 2 2 3 7 6 5 8 5 7 4 19 20 21 21 20 24 22 19 16 11 8 10 8 6 5 16 13 11 8 7 20 19 15 18 15 16 14 18 13 20
15 8 9 9 6 5 4 3 3 1 2 3 3 1 4 3 5 3 3 20 16 16 21 21 23 21 19 18 15 13 11 12 10 10 22 19 13 11 9 19 16 13 14 13 12 14 17 15 16
8 6 10 5 4 9 7 4 2 2 3 3 4 5 2 4 3 2 6 14 13 13 18 21 22 21 20 21 19 17 14 12 9 13 16 27 19 13 13 10 11 15 11 9 11 12 14 11 9
9 7 7 9 1 7 6 6 3 1 2 5 5 3 5 4 2 3 7 12 12 12 16 24 26 24 24 23 22 21 19 16 13 13 22 27 25 19 15 12 10 11 11 10 10 10 11 11 10
7 9 6 1 5 1 8 5 4 5 3 2 3 2 5 9 0 3 10 14 15 16 18 20 28 30 29 27 26 25 24 21 18 16 19 23 30 24 22 16 15 16 18 16 13 11 11 12 12
5 8 3 7 9 5 9 7 5 3 3 1 2 4 4 7 5 6 11 15 19 21 22 23 24 30 31 31 30 31 30 28 24 20 19 20 29 27 24 23 24 24 20 17 16 16 14 15 15
8 6 13 4 6 3 5 10 6 2 8 2 1 6 7 3 7 11 15 19 22 25 25 27 28 29 33 34 35 36 36 35 32 27 23 25 26 32 28 28 26 26 25 24 22 21 20 19 18
4 9 6 4 1 4 4 9 4 2 4 3 1 7 12 12 12 17 18 22 26 28 32 34 35 32 37 37 37 39 41 43 41 37 31 30 29 34 35 33 30 31 32 32 29 27 25 23 23
2 9 7 1 3 6 8 6 8 10 12 9 7 12 19 19 23 26 27 28 29 33 38 41 41 43 41 41 43 42 45 46 48 46 41 39 36 37 40 39 38 36 35 33 33 31 29 29 28
2 2 4 8 11 12 12 15 17 20 24 27 25 24 16 25 29 33 38 40 40 44 45 49 50 52 51 50 49 48 50 50 48 50 50 49 46 43 42 43 44 43 42 39 37 36 35 34 34
4 5 11 3 5 10 9 13 11 5 15 20 21 26 31 35 36 35 41 47 48 48 50 52 57 58 59 59 60 57 54 53 53 53 53 54 54 51 48 48 50 50 49 45 44 42 40 40 40
5 10 12 4 4 6 8 12 18 36 24 22 25 32 37 33 35 40 38 42 47 51 51 55 56 60 65 65 66 67 64 60 60 59 56 56 57 55 54 53 55 55 52 51 50 50 49 49 48
5 8 5 5 4 11 14 21 13 27 15 16 21 30 44 51 52 47 47 44 36 45 55 54 56 60 64 68 68 72 72 71 68 66 63 61 60 60 58 60 58 56 56 56 56 56 57 56 56
8 5 10 14 3 5 11 4 7 10 32 46 49 49 51 59 60 60 60 59 58 59 56 52 55 64 67 69 73 75 77 79 78 73 71 69 66 65 65 64 64 58 59 63 64 62 62 65 61
11 8 3 9 9 5 16 22 26 56 45 41 50 59 65 65 67 62 62 59 62 64 67 68 71 69 68 68 75 81 85 88 84 82 80 77 73 71 69 70 69 67 65 68 71 70 67 68 67
7 9 10 5 12 5 17 33 18 50 41 44 55 67 74 67 56 52 53 57 62 64 66 69 71 74 77 82 77 81 86 87 87 86 86 85 81 76 78 76 75 76 74 74 72 71 73 73 71
13 20 15 9 10 10 17 33 24 24 33 48 54 68 60 59 65 62 58 58 54 53 52 53 56 59 68 79 81 79 77 85 86 87 89 91 87 82 84 83 83 81 82 81 78 77 80 78 77
10 14 9 13 6 9 11 39 29 21 15 36 36 45 53 56 59 57 60 54 55 52 49 57 53 48 49 61 74 81 78 80 83 85 87 86 88 83 88 90 88 88 84 88 85 84 86 87 82
22 11 10 8 6 16 8 16 12 6 18 10 38 44 53 35 43 40 46 51 45 46 46 43 43 38 43 50 65 77 85 89 85 81 85 85 89 89 87 91 90 93 95 88 92 90 91 87 91
8 13 17 11 9 8 5 11 9 10 5 15 35 32 20 28 26 38 47 52 53 42 32 28 37 42 44 42 51 61 74 81 83 84 86 84 85 87 89 88 87 91 95 100 96 98 98 97 93
15 10 9 4 3 18 16 12 18 10 12 7 16 8 20 18 29 41 49 52 53 52 41 37 26 21 19 20 34 45 56 61 71 77 82 83 84 85 89 90 91 91 86 79 89 97 105 106 102
14 14 1 4 9 12 10 14 35 6 22 22 16 22 6 28 37 44 48 51 52 53 54 52 50 48 37 23 21 37 51 60 69 75 80 82 84 86 85 86 91 92 90 91 87 85 89 105 110
20 18 9 12 9 8 7 15 14 11 11 2 6 8 14 25 34 39 42 47 49 51 51 48 46 47 44 40 34 25 21 36 51 63 71 76 79 82 84 85 88 91 82 84 90 88 85 88 101
11 24 17 4 5 3 9 15 27 21 22 18 28 16 20 22 31 35 37 40 43 46 48 51 49 47 46 44 37 33 30 29 31 37 48 60 65 69 73 76 88 91 88 79 90 91 88 83 87
13 16 5 7 9 14 9 11 22 9 12 15 12 17 16 18 25 30 33 34 36 38 37 37 39 46 49 48 45 38 35 34 35 37 38 42 50 56 67 76 78 80 88 89 88 94 95 95 86
13 19 8 10 9 10 4 12 15 21 15 16 11 12 13 16 21 24 28 33 33 35 37 36 37 38 42 47 45 45 41 37 36 36 37 40 45 47 54 63 69 78 86 91 92 90 93 102 103
23 17 21 10 9 6 4 18 8 9 21 22 17 22 15 14 16 20 24 28 31 39 45 44 42 43 41 49 48 47 48 47 46 45 44 45 49 47 50 56 61 66 81 86 91 97 104 94 95
Wind_Direction_500mb
354 330 344 13 55 65 43 54 277 30 23 11 84 105 131 58 97 222 159 162 163 172 166 164 168 167 170 167 167 156 152 102 72 161 138 126 147 142 120 113 120 116 116 115 110 113 118 101 101
357 351 4 71 79 63 296 273 99 333 125 94 36 14 41 20 41 95 151 160 161 174 173 170 174 175 177 182 179 166 127 24 44 84 153 141 137 129 154 137 137 121 123 112 110 113 105 97 96
347 355 39 84 105 136 151 249 142 127 158 12 57 42 28 34 14 137 252 176 165 178 184 179 181 181 188 193 200 228 259 301 344 104 155 176 145 108 133 143 136 127 120 122 119 124 111 111 109
358 13 61 74 77 212 215 256 199 73 93 38 108 54 36 354 32 131 147 180 174 183 193 190 186 194 204 207 223 247 262 267 263 204 166 202 166 150 118 150 133 152 133 129 127 136 135 126 119
4 37 57 70 333 295 307 300 169 63 352 28 52 47 65 55 31 98 173 183 185 202 204 202 200 207 220 230 237 245 251 250 253 226 189 192 193 183 150 165 159 159 149 144 142 139 150 134 132
44 49 65 114 284 309 325 3 314 6 331 22 38 110 5 326 317 65 133 183 202 220 225 220 218 224 235 242 249 249 247 252 247 225 217 205 202 191 182 180 188 184 177 166 156 149 159 165 166
86 70 146 150 213 2 348 6 27 2 137 16 90 84 357 6 25 101 152 188 208 225 244 241 233 239 243 246 252 253 251 253 265 237 225 200 197 197 206 189 209 197 186 186 179 176 181 195 194
53 88 107 194 159 174 339 38 33 24 68 105 347 26 9 351 17 159 175 203 225 238 247 245 250 250 251 251 253 253 255 257 260 256 239 210 212 205 210 212 206 209 204 196 196 204 209 216 218
38 65 144 190 160 190 22 71 34 29 62 122 359 7 337 324 265 232 218 229 241 247 246 247 261 256 257 254 257 254 254 255 260 253 248 242 229 220 222 221 210 214 213 207 208 216 223 232 231
79 102 213 211 163 123 29 30 25 27 7 16 332 1 0 332 264 270 279 271 266 266 264 262 265 270 263 260 258 258 256 256 255 256 254 248 237 234 228 229 218 221 217 212 214 221 229 237 244
108 167 206 250 85 61 9 349 358 68 327 237 141 17 358 339 293 277 285 285 296 291 277 275 274 273 269 264 261 262 261 260 259 255 253 255 244 238 241 240 230 228 227 219 221 225 233 239 245
266 213 196 307 208 335 329 303 291 235 259 310 246 308 318 315 306 301 296 290 286 285 286 277 274 273 269 266 266 264 264 263 262 264 257 254 253 248 243 243 240 238 239 231 229 230 234 240 245
229 249 185 213 276 292 289 265 267 263 272 281 280 295 304 308 308 303 296 280 274 273 278 276 274 271 269 266 266 266 260 262 267 266 264 259 256 255 253 249 245 243 241 239 234 235 238 243 248
277 271 280 136 227 269 249 272 277 98 296 283 282 277 293 298 304 299 290 284 279 285 279 277 274 273 269 268 267 267 268 263 262 265 267 264 260 259 257 254 250 246 244 243 242 242 243 246 248
272 316 334 228 202 259 263 289 239 275 281 284 289 297 302 308 305 300 301 290 283 284 283 274 276 275 270 270 268 267 266 265 263 261 263 264 263 259 259 258 255 252 249 245 246 243 243 244 246
109 45 347 288 204 231 172 258 263 292 300 297 296 305 306 303 302 294 294 297 290 287 279 276 273 274 273 271 271 268 267 266 266 264 262 262 264 262 260 260 259 255 251 248 247 247 247 247 247
191 197 212 304 257 229 191 298 283 283 308 305 306 308 310 309 304 298 292 282 277 281 280 279 278 273 272 273 270 271 270 267 266 266 265 263 261 262 261 262 262 258 253 252 251 250 250 250 250
205 209 149 215 309 337 291 269 272 285 288 292 298 306 308 304 298 300 299 290 282 280 279 277 276 272 273 271 269 266 267 267 266 267 266 266 262 260 260 262 262 259 255 254 251 252 253 253 253
140 165 185 239 262 279 259 272 260 279 287 287 299 304 304 299 306 307 310 302 297 289 282 276 275 272 270 270 268 266 266 267 268 269 269 265 264 262 260 260 261 260 255 257 257 256 258 256 255
206 232 231 236 243 201 283 277 279 270 270 284 295 295 294 307 308 315 320 314 309 301 293 284 291 282 269 263 266 266 270 268 269 267 269 270 267 264 264 259 260 261 260 258 258 256 257 257 255
196 221 211 232 314 271 295 287 270 254 256 283 282 282 295 305 318 327 326 321 312 298 287 288 293 280 278 266 264 263 263 262 264 267 269 273 274 270 266 262 259 262 263 260 259 259 257 259 258
228 182 163 208 233 262 127 287 310 274 277 244 275 292 300 327 335 350 0 2 339 314 295 287 283 280 284 280 268 262 262 263 269 275 276 275 275 274 269 270 264 260 263 263 260 260 260 258 258
228 167 181 179 215 299 219 284 285 113 197 265 276 286 324 341 25 20 22 22 22 10 342 318 301 295 292 284 276 272 269 269 272 272 273 276 277 277 276 273 270 266 263 267 265 262 260 259 257
154 91 58 64 124 245 177 182 271 183 186 218 265 326 345 34 21 24 27 28 29 30 32 28 2 332 306 311 301 289 284 283 277 276 274 277 279 280 278 276 274 270 266 270 273 268 265 265 263
178 135 195 212 205 246 202 175 246 305 284 239 268 302 88 25 24 19 20 23 24 26 33 37 37 33 18 352 327 309 302 297 292 288 284 283 283 283 285 286 281 278 277 274 265 273 275 268 264
195 188 186 195 194 236 133 231 246 199 278 212 143 145 72 35 26 23 25 25 27 26 25 25 29 32 34 31 25 3 324 304 299 293 292 290 290 290 291 291 289 285 286 285 273 265 274 274 272
176 209 213 349 80 56 230 280 285 275 271 150 151 104 65 44 36 28 25 26 25 24 24 21 16 20 19 16 14 8 356 337 311 295 294 291 292 294 293 293 289 285 285 285 280 271 268 269 276
168 153 151 194 202 234 243 252 238 263 94 133 137 82 74 44 29 24 17 16 26 30 28 23 11 8 6 4 2 359 349 337 328 322 309 293 293 295 294 292 285 284 281 279 279 278 275 264 266
177 209 206 141 165 179 219 250 211 237 216 164 158 116 100 58 37 24 17 20 21 17 18 23 24 10 1 1 357 352 349 345 333 322 316 311 301 290 286 289 288 282 278 278 277 278 280 273 269
208 211 193 180 209 229 250 257 166 150 145 146 147 134 105 73 52 32 19 12 13 16 16 9 2 6 4 358 354 349 348 343 339 335 330 322 309 303 293 283 280 282 280 279 278 277 272 273 275
Wind_Speed_850mb
22 14 20 5 9 11 4 3 3 3 5 5 2 4 5 7 2 4 12 26 25 29 28 26 23 22 22 19 13 8 6 4 4 3 10 18 17 9 8 22 25 19 21 21 21 21 22 26 25
22 15 8 8 10 7 7 6 5 5 4 14 8 9 10 6 6 4 23 21 24 26 26 25 23 24 24 16 11 7 4 2 6 4 11 15 13 6 10 24 20 20 16 19 21 20 29 27 24
18 19 8 9 7 7 5 4 4 4 10 5 4 10 5 4 7 4 2 21 26 24 23 22 22 25 21 16 9 5 4 4 5 2 12 12 9 8 8 17 19 19 18 16 17 21 24 23 18
20 8 12 10 7 1 2 3 1 2 2 3 7 6 5 8 5 7 4 19 20 21 21 20 24 22 19 16 11 8 10 8 6 5 16 13 11 8 7 20 19 15 18 15 16 14 18 13 20
15 8 9 9 6 5 4 3 3 1 2 3 3 1 4 3 5 3 3 20 16 16 21 21 23 21 19 18 15 13 11 12 10 10 22 19 13 11 9 19 16 13 14 13 12 14 17 15 16
8 6 10 5 4 9 7 4 2 2 3 3 4 5 2 4 3 2 6 14 13 13 18 21 22 21 20 21 19 17 14 12 9 13 16 27 19 13 13 10 11 15 11 9 11 12 14 11 9
9 7 7 9 1 7 6 6 3 1 2 5 5 3 5 4 2 3 7 12 12 12 16 24 26 24 24 23 22 21 19 16 13 13 22 27 25 19 15 12 10 11 11 10 10 10 11 11 10
7 9 6 1 5 1 8 5 4 5 3 2 3 2 5 9 0 3 10 14 15 16 18 20 28 30 29 27 26 25 24 21 18 16 19 23 30 24 22 16 15 16 18 16 13 11 11 12 12
5 8 3 7 9 5 9 7 5 3 3 1 2 4 4 7 5 6 11 15 19 21 22 23 24 30 31 31 30 31 30 28 24 20 19 20 29 27 24 23 24 24 20 17 16 16 14 15 15
8 6 13 4 6 3 5 10 6 2 8 2 1 6 7 3 7 11 15 19 22 25 25 27 28 29 33 34 35 36 36 35 32 27 23 25 26 32 28 28 26 26 25 24 22 21 20 19 18
4 9 6 4 1 4 4 9 4 2 4 3 1 7 12 12 12 17 18 22 26 28 32 34 35 32 37 37 37 39 41 43 41 37 31 30 29 34 35 33 30 31 32 32 29 27 25 23 23
2 9 7 1 3 6 8 6 8 10 12 9 7 12 19 19 23 26 27 28 29 33 38 41 41 43 41 41 43 42 45 46 48 46 41 39 36 37 40 39 38 36 35 33 33 31 29 29 28
2 2 4 8 11 12 12 15 17 20 24 27 25 24 16 25 29 33 38 40 40 44 45 49 50 52 51 50 49 48 50 50 48 50 50 49 46 43 42 43 44 43 42 39 37 36 35 34 34
4 5 11 3 5 10 9 13 11 5 15 20 21 26 31 35 36 35 41 47 48 48 50 52 57 58 59 59 60 57 54 53 53 53 53 54 54 51 48 48 50 50 49 45 44 42 40 40 40
5 10 12 4 4 6 8 12 18 36 24 22 25 32 37 33 35 40 38 42 47 51 51 55 56 60 65 65 66 67 64 60 60 59 56 56 57 55 54 53 55 55 52 51 50 50 49 49 48
5 8 5 5 4 11 14 21 13 27 15 16 21 30 44 51 52 47 47 44 36 45 55 54 56 60 64 68 68 72 72 71 68 66 63 61 60 60 58 60 58 56 56 56 56 56 57 56 56
8 5 10 14 3 5 11 4 7 10 32 46 49 49 51 59 60 60 60 59 58 59 56 52 55 64 67 69 73 75 77 79 78 73 71 69 66 65 65 64 64 58 59 63 64 62 62 65 61
11 8 3 9 9 5 16 22 26 56 45 41 50 59 65 65 67 62 62 59 62 64 67 68 71 69 68 68 75 81 85 88 84 82 80 77 73 71 69 70 69 67 65 68 71 70 67 68 67
7 9 10 5 12 5 17 33 18 50 41 44 55 67 74 67 56 52 53 57 62 64 66 69 71 74 77 82 77 81 86 87 87 86 86 85 81 76 78 76 75 76 74 74 72 71 73 73 71
13 20 15 9 10 10 17 33 24 24 33 48 54 68 60 59 65 62 58 58 54 53 52 53 56 59 68 79 81 79 77 85 86 87 89 91 87 82 84 83 83 81 82 81 78 77 80 78 77
10 14 9 13 6 9 11 39 29 21 15 36 36 45 53 56 59 57 60 54 55 52 49 57 53 48 49 61 74 81 78 80 83 85 87 86 88 83 88 90 88 88 84 88 85 84 86 87 82
22 11 10 8 6 16 8 16 12 6 18 10 38 44 53 35 43 40 46 51 45 46 46 43 43 38 43 50 65 77 85 89 85 81 85 85 89 89 87 91 90 93 95 88 92 90 91 87 91
8 13 17 11 9 8 5 11 9 10 5 15 35 32 20 28 26 38 47 52 53 42 32 28 37 42 44 42 51 61 74 81 83 84 86 84 85 87 89 88 87 91 95 100 96 98 98 97 93
15 10 9 4 3 18 16 12 18 10 12 7 16 8 20 18 29 41 49 52 53 52 41 37 26 21 19 20 34 45 56 61 71 77 82 83 84 85 89 90 91 91 86 79 89 97 105 106 102
14 14 1 4 9 12 10 14 35 6 22 22 16 22 6 28 37 44 48 51 52 53 54 52 50 48 37 23 21 37 51 60 69 75 80 82 84 86 85 86 91 92 90 91 87 85 89 105 110
20 18 9 12 9 8 7 15 14 11 11 2 6 8 14 25 34 39 42 47 49 51 51 48 46 47 44 40 34 25 21 36 51 63 71 76 79 82 84 85 88 91 82 84 90 88 85 88 101
11 24 17 4 5 3 9 15 27 21 22 18 28 16 20 22 31 35 37 40 43 46 48 51 49 47 46 44 37 33 30 29 31 37 48 60 65 69 73 76 88 91 88 79 90 91 88 83 87
13 16 5 7 9 14 9 11 22 9 12 15 12 17 16 18 25 30 33 34 36 38 37 37 39 46 49 48 45 38 35 34 35 37 38 42 50 56 67 76 78 80 88 89 88 94 95 95 86
13 19 8 10 9 10 4 12 15 21 15 16 11 12 13 16 21 24 28 33 33 35 37 36 37 38 42 47 45 45 41 37 36 36 37 40 45 47 54 63 69 78 86 91 92 90 93 102 103
23 17 21 10 9 6 4 18 8 9 21 22 17 22 15 14 16 20 24 28 31 39 45 44 42 43 41 49 48 47 48 47 46 45 44 45 49 47 50 56 61 66 81 86 91 97 104 94 95
Wind_Direction_850mb
354 330 344 13 55 65 43 54 277 30 23 11 84 105 131 58 97 222 159 162 163 172 166 164 168 167 170 167 167 156 152 102 72 161 138 126 147 142 120 113 120 116 116 115 110 113 118 101 101
357 351 4 71 79 63 296 273 99 333 125 94 36 14 41 20 41 95 151 160 161 174 173 170 174 175 177 182 179 166 127 24 44 84 153 141 137 129 154 137 137 121 123 112 110 113 105 97 96
347 355 39 84 105 136 151 249 142 127 158 12 57 42 28 34 14 137 252 176 165 178 184 179 181 181 188 193 200 228 259 301 344 104 155 176 145 108 133 143 136 127 120 122 119 124 111 111 109
358 13 61 74 77 212 215 256 199 73 93 38 108 54 36 354 32 131 147 180 174 183 193 190 186 194 204 207 223 247 262 267 263 204 166 202 166 150 118 150 133 152 133 129 127 136 135 126 119
4 37 57 70 333 295 307 300 169 63 352 28 52 47 65 55 31 98 173 183 185 202 204 202 200 207 220 230 237 245 251 250 253 226 189 192 193 183 150 165 159 159 149 144 142 139 150 134 132
44 49 65 114 284 309 325 3 314 6 331 22 38 110 5 326 317 65 133 183 202 220 225 220 218 224 235 242 249 249 247 252 247 225 217 205 202 191 182 180 188 184 177 166 156 149 159 165 166
86 70 146 150 213 2 348 6 27 2 137 16 90 84 357 6 25 101 152 188 208 225 244 241 233 239 243 246 252 253 251 253 265 237 225 200 197 197 206 189 209 197 186 186 179 176 181 195 194
53 88 107 194 159 174 339 38 33 24 68 105 347 26 9 351 17 159 175 203 225 238 247 245 250 250 251 251 253 253 255 257 260 256 239 210 212 205 210 212 206 209 204 196 196 204 209 216 218
38 65 144 190 160 190 22 71 34 29 62 122 359 7 337 324 265 232 218 229 241 247 246 247 261 256 257 254 257 254 254 255 260 253 248 242 229 220 222 221 210 214 213 207 208 216 223 232 231
79 102 213 211 163 123 29 30 25 27 7 16 332 1 0 332 264 270 279 271 266 266 264 262 265 270 263 260 258 258 256 256 255 256 254 248 237 234 228 229 218 221 217 212 214 221 229 237 244
108 167 206 250 85 61 9 349 358 68 327 237 141 17 358 339 293 277 285 285 296 291 277 275 274 273 269 264 261 262 261 260 259 255 253 255 244 238 241 240 230 228 227 219 221 225 233 239 245
266 213 196 307 208 335 329 303 291 235 259 310 246 308 318 315 306 301 296 290 286 285 286 277 274 273 269 266 266 264 264 263 262 264 257 254 253 248 243 243 240 238 239 231 229 230 234 240 245
229 249 185 213 276 292 289 265 267 263 272 281 280 295 304 308 308 303 296 280 274 273 278 276 274 271 269 266 266 266 260 262 267 266 264 259 256 255 253 249 245 243 241 239 234 235 238 243 248
277 271 280 136 227 269 249 272 277 98 296 283 282 277 293 298 304 299 290 284 279 285 279 277 274 273 269 268 267 267 268 263 262 265 267 264 260 259 257 254 250 246 244 243 242 242 243 246 248
272 316 334 228 202 259 263 289 239 275 281 284 289 297 302 308 305 300 301 290 283 284 283 274 276 275 270 270 268 267 266 265 263 261 263 264 263 259 259 258 255 252 249 245 246 243 243 244 246
109 45 347 288 204 231 172 258 263 292 300 297 296 305 306 303 302 294 294 297 290 287 279 276 273 274 273 271 271 268 267 266 266 264 262 262 264 262 260 260 259 255 251 248 247 247 247 247 247
191 197 212 304 257 229 191 298 283 283 308 305 306 308 310 309 304 298 292 282 277 281 280 279 278 273 272 273 270 271 270 267 266 266 265 263 261 262 261 262 262 258 253 252 251 250 250 250 250
205 209 149 215 309 337 291 269 272 285 288 292 298 306 308 304 298 300 299 290 282 280 279 277 276 272 273 271 269 266 267 267 266 267 266 266 262 260 260 262 262 259 255 254 251 252 253 253 253
140 165 185 239 262 279 259 272 260 279 287 287 299 304 304 299 306 307 310 302 297 289 282 276 275 272 270 270 268 266 266 267 268 269 269 265 264 262 260 260 261 260 255 257 257 256 258 256 255
206 232 231 236 243 201 283 277 279 270 270 284 295 295 294 307 308 315 320 314 309 301 293 284 291 282 269 263 266 266 270 268 269 267 269 270 267 264 264 259 260 261 260 258 258 256 257 257 255
196 221 211 232 314 271 295 287 270 254 256 283 282 282 295 305 318 327 326 321 312 298 287 288 293 280 278 266 264 263 263 262 264 267 269 273 274 270 266 262 259 262 263 260 259 259 257 259 258
228 182 163 208 233 262 127 287 310 274 277 244 275 292 300 327 335 350 0 2 339 314 295 287 283 280 284 280 268 262 262 263 269 275 276 275 275 274 269 270 264 260 263 263 260 260 260 258 258
228 167 181 179 215 299 219 284 285 113 197 265 276 286 324 341 25 20 22 22 22 10 342 318 301 295 292 284 276 272 269 269 272 272 273 276 277 277 276 273 270 266 263 267 265 262 260 259 257
154 91 58 64 124 245 177 182 271 183 186 218 265 326 345 34 21 24 27 28 29 30 32 28 2 332 306 311 301 289 284 283 277 276 274 277 279 280 278 276 274 270 266 270 273 268 265 265 263
178 135 195 212 205 246 202 175 246 305 284 239 268 302 88 25 24 19 20 23 24 26 33 37 37 33 18 352 327 309 302 297 292 288 284 283 283 283 285 286 281 278 277 274 265 273 275 268 264
195 188 186 195 194 236 133 231 246 199 278 212 143 145 72 35 26 23 25 25 27 26 25 25 29 32 34 31 25 3 324 304 299 293 292 290 290 290 291 291 289 285 286 285 273 265 274 274 272
176 209 213 349 80 56 230 280 285 275 271 150 151 104 65 44 36 28 25 26 25 24 24 21 16 20 19 16 14 8 356 337 311 295 294 291 292 294 293 293 289 285 285 285 280 271 268 269 276
168 153 151 194 202 234 243 252 238 263 94 133 137 82 74 44 29 24 17 16 26 30 28 23 11 8 6 4 2 359 349 337 328 322 309 293 293 295 294 292 285 284 281 279 279 278 275 264 266
177 209 206 141 165 179 219 250 211 237 216 164 158 116 100 58 37 24 17 20 21 17 18 23 24 10 1 1 357 352 349 345 333 322 316 311 301 290 286 289 288 282 278 278 277 278 280 273 269
208 211 193 180 209 229 250 257 166 150 145 146 147 134 105 73 52 32 19 12 13 16 16 9 2 6 4 358 354 349 348 343 339 335 330 322 309 303 293 283 280 282 280 279 278 277 272 273 275